User: anonymous   Login
Location: Unspecified
(0.0000°N, 0.0000°E)
Time: 05:30:35
(UTC+00:00)
Language:

SAGE - Orbit

View from above orbital plane
View from above orbital plane
View from above satellite
View from above satellite

Ground track
Ground track

The orbit data is extracted from the following two-line orbital elements,

1 11270U 79013  A 89101.42505567  .28172433 +55225-4 +68004-3 0 05916
2 11270 054.9130 268.5781 0008221 279.9550 081.0907 16.45579885560567
Epoch (UTC): 11 April 1989 10:12:04
Eccentricity: 0.0008221
inclination: 54.9130°
perigee height: 146 km
apogee height: 156 km
right ascension of ascending node: 268.5781°
argument of perigee: 279.9550°
revolutions per day: 16.45579885
mean anomaly at epoch: 81.0907°
orbit number at epoch: 56056

The dashed part of the orbit path shows where the satellite is in the earth's shadow,  

DLR